Location: Lamoine Observatory
(44.4551°N, 68.3470°W)
Time: 18:39:40
(UTC-04:00)

Daily predictions for brighter satellites

Satellite Brightness Start Highest point End
(mag) Time Altitude Azimuth Time Altitude Azimuth Time Altitude Azimuth
Meteor 2-16 Rocket 4.5 19:31:49 10° S 19:37:52 84° E 19:44:00 10° N
Cosmos 1656 3.8 19:34:44 10° S 19:40:08 51° ESE 19:45:30 10° NE
FENGYUN 3A 3.8 19:35:19 10° SSE 19:40:33 57° ENE 19:45:48 10° N
Resurs 01 Rocket 2.1 19:36:14 10° S 19:40:38 69° WSW 19:45:06 10° NNW
NOSS 7 (H) 4.4 19:38:11 10° SW 19:41:29 89° NW 19:45:01 10° NE
H-2A R/B 3.1 19:40:46 10° SE 19:44:31 47° ENE 19:48:20 10° N
EO 1 Delta rocket 4.2 19:44:23 10° NNE 19:49:04 54° E 19:54:34 10° S
Cosmos 2263 Rocket 4.2 19:48:17 10° NNE 19:50:38 13° NE 19:52:57 10° ENE
CZ-4B DEB 2.8 19:48:15 10° SSE 19:51:32 89° WSW 19:54:52 10° NNW
Iridium 4 Rocket 3.5 19:52:08 10° N 19:56:59 51° E 20:01:23 10° SSE
Lacrosse 5 1.9 19:52:28 10° NW 19:57:34 86° SW 20:02:38 10° SE
Cosmos 2227 Rocket 3.3 19:53:18 10° NW 19:58:42 46° WSW 20:04:02 10° S
Cosmos 1825 Rocket 4.4 19:59:30 10° N 20:03:28 31° ENE 20:07:03 12° SE
Cosmos 2322 Rocket 3.7 20:02:01 11° ESE 20:04:26 14° E 20:07:13 10° ENE
Cosmos 1500 3.3 20:02:34 10° S 20:06:13 51° E 20:09:54 10° NNE
Cosmos 1975 2.9 20:04:56 10° S 20:09:02 90° W 20:13:10 10° N
Lacrosse 5 rocket 3.6 20:07:39 10° W 20:10:04 17° WSW 20:12:25 10° SSW
Cosmos 1340 3.6 20:06:50 10° N 20:10:13 30° ENE 20:12:37 16° SE
Cosmos 2084 4.3 20:06:23 10° NW 20:10:18 47° WSW 20:14:24 10° SSE
CZ-2D R/B 3.4 20:06:35 10° S 20:10:27 78° W 20:14:22 10° NNW
SPOT 5 4.3 20:08:32 13° ESE 20:11:18 21° ENE 20:14:45 10° NNE
Cosmos 1937 Rocket 3.5 20:07:02 10° NNW 20:12:19 71° ENE 20:17:37 10° SSE
Cosmos 2173 Rocket 4.3 20:06:22 10° SSE 20:12:21 45° E 20:18:18 10° NNE
Cosmos 2297 Rocket 3.2 20:07:59 10° NW 20:13:26 48° WSW 20:18:49 10° S
Envisat 3.8 20:09:25 13° SE 20:13:26 34° ENE 20:18:01 10° N
Cosmos 1953 Rocket 4.5 20:11:44 10° N 20:15:43 31° ENE 20:18:31 17° SE
Cosmos 1605 Rocket 4.4 20:12:58 10° SSW 20:19:15 68° W 20:25:28 10° N
H-2A R/B 3.3 20:17:53 17° ESE 20:19:49 24° ENE 20:23:10 10° NNE
Cosmos 990 Rocket 4.1 20:14:42 10° NNW 20:19:56 62° ENE 20:24:22 14° SE
Cosmos 1626 Rocket 4.2 20:16:13 10° NNW 20:20:32 57° W 20:24:48 10° S
Cosmos 2298 Rocket 4.4 20:15:17 10° NNW 20:20:34 67° WSW 20:25:50 10° S
BREEZE-M DEB (TANK) 3.8 20:18:26 10° WNW 20:21:41 67° NNE 20:29:06 16° ESE
USA 186 2.2 20:22:41 10° S 20:25:35 52° W 20:28:19 10° NNW
Cosmos 2227 4.4 20:20:30 10° NNW 20:26:13 60° ENE 20:30:27 18° SE
ALOS 3.1 20:22:12 10° S 20:26:44 51° W 20:31:18 10° NNW
Meteor 1-21 4.5 20:22:35 10° N 20:28:16 54° ENE 20:33:00 15° SSE
Cosmos 1515 4.3 20:25:28 10° NNW 20:29:15 57° W 20:33:00 10° S
Cosmos 2100 Rocket 4.0 20:24:34 10° S 20:30:47 68° E 20:36:57 10° NNE
CZ-4 DEB 2.7 20:30:35 23° SSE 20:32:22 65° ENE 20:35:31 10° N
ERS-1 Rocket 3.0 20:28:46 14° SSE 20:33:05 65° ENE 20:38:04 10° N
Cosmos 1758 Rocket 4.0 20:29:57 10° N 20:34:04 40° ENE 20:36:02 25° SE
YAOGAN 11 4.1 20:34:19 14° SSE 20:38:09 80° ENE 20:42:35 10° NNW
H-2A R/B 3.9 20:44:51 13° ENE 20:45:45 13° ENE 20:48:00 10° NNE
Cosmos 1763 Rocket 3.3 20:40:51 10° S 20:45:53 66° ESE 20:50:55 10° NNE
Cosmos 2061 Rocket 3.9 20:40:49 10° S 20:47:06 81° E 20:53:21 10° N
deb Chang Zheng 4 4.1 20:43:55 10° NNE 20:48:05 38° E 20:49:22 31° SE
Cosmos 1697 Rocket 3.2 20:42:53 10° SW 20:48:30 64° WNW 20:54:07 10° NNE
Tiangong 1 2.6 20:46:45 10° W 20:49:18 23° SSW 20:49:40 23° SSW
Cosmos 1939 Rocket 2.8 20:47:20 25° SSE 20:49:44 79° ENE 20:53:56 10° N
Cosmos 1743 2.7 20:46:42 10° S 20:50:36 84° W 20:54:33 10° N
Cosmos 1459 Rocket 3.9 20:48:13 10° S 20:54:16 86° W 21:00:27 10° N
USA 215 4.4 20:49:42 12° ENE 20:55:00 36° NNE 21:00:50 10° NW
ARGOS 4.0 20:57:33 28° E 20:59:04 33° ENE 21:03:50 10° N
Cosmos 1125 Rocket 3.6 20:56:56 10° NNW 21:02:06 59° ENE 21:03:59 37° SE
Cosmos 1725 Rocket 4.1 20:58:21 22° SSE 21:02:19 54° E 21:08:23 10° NNE
SL-16 R/B 2.6 21:00:04 27° SSE 21:02:27 40° ESE 21:07:43 10° NE
SPOT 1/Viking Rocket 4.2 21:03:30 33° E 21:04:49 38° ENE 21:09:37 10° N
Cosmos 2058 Rocket 3.1 21:03:44 34° SSE 21:05:33 63° E 21:10:02 10° NNE
Cosmos 1606 Rocket 3.6 21:01:24 11° S 21:05:36 83° W 21:10:05 10° N
MetOp-B 4.2 21:05:08 36° SE 21:07:11 58° ENE 21:12:26 10° N
Cosmos 2098 Rocket 3.8 21:02:48 11° S 21:09:06 68° E 21:14:27 10° NNE
BREEZE-M DEB (TANK) 3.6 20:56:05 10° WSW 21:09:44 75° SSE 21:12:09 30° E
ASTEX 1 3.4 21:05:29 10° NNE 21:10:29 64° E 21:12:21 37° SSE
Cosmos 841 Rocket 3.5 21:05:54 10° SSW 21:11:08 86° WNW 21:16:23 10° NNE
Cosmos 1980 Rocket 2.6 21:07:18 10° SW 21:12:56 66° WNW 21:18:38 10° NNE
Cosmos 2360 Rocket 4.1 21:16:49 13° ENE 21:16:49 13° ENE 21:17:47 10° NE
Cosmos 540 Rocket 3.8 21:16:03 41° E 21:16:03 41° E 21:20:37 10° NE
Cosmos 2233 Rocket 4.2 21:22:18 42° SE 21:23:39 48° E 21:29:37 10° NNE
Cosmos 1842 3.6 21:23:21 10° NNW 21:27:13 62° W 21:27:49 53° SW
Cosmos 1726 Rocket 4.1 21:24:43 18° SSW 21:27:54 56° W 21:32:17 10° N
Cosmos 1666 3.1 21:29:45 49° SW 21:30:28 60° W 21:34:15 10° N
YAOGAN 6 2.7 21:30:59 74° NNW 21:30:59 74° NNW 21:34:25 10° NNW
Cosmos 372 Rocket 3.9 21:27:57 10° NNW 21:33:05 68° ENE 21:33:43 61° ESE
Cosmos 2263 Rocket 2.2 21:30:15 10° NNW 21:35:46 61° ENE 21:36:35 54° E
Cosmos 332 Rocket 3.7 21:37:52 71° E 21:37:52 71° E 21:42:42 10° NNE
Lacrosse 5 4.1 21:36:55 10° W 21:39:51 15° WSW 21:41:56 12° SSW
Cosmos 371 Rocket 4.3 21:41:44 33° NE 21:41:44 33° NE 21:44:39 10° NNE
SL-19 R/B 4.0 21:39:21 10° NNE 21:44:45 71° ESE 21:45:05 69° SE
Landsat 7 4.4 21:47:59 46° NE 21:47:59 46° NE 21:52:02 10° N
Cosmos 2322 Rocket 2.1 21:43:34 19° SSW 21:47:39 85° WNW 21:53:19 10° NNE
SPOT 5 3.5 21:47:47 40° SW 21:49:03 51° W 21:53:40 10° NNW
H-2A R/B 3.4 21:55:01 29° WSW 21:55:42 31° W 21:59:26 10° NNW
Cosmos 2228 3.6 21:55:49 50° W 21:56:08 52° WNW 22:00:19 10° N
CZ-4B R/B 3.7 21:54:25 10° NNE 21:58:07 53° NE 21:58:07 53° NE
Meteor 2-5 Rocket 3.6 21:56:22 10° N 22:02:19 79° E 22:02:35 77° ESE
Terra 2.6 22:03:43 41° NE 22:03:43 41° NE 22:07:17 10° N
Meteor 1-24 Rocket 4.1 22:03:34 10° N 22:09:12 54° ENE 22:09:12 54° ENE
Cosmos 1464 Rocket 4.3 22:13:27 52° ENE 22:13:27 52° ENE 22:18:55 10° NNE
Cosmos 2346 Rocket 4.5 22:12:42 10° NNW 22:18:54 72° W 22:19:34 66° SW
H-2A R/B 2.4 22:25:29 58° NNW 22:25:29 58° NNW 22:29:26 10° NNW
BREEZE-M DEB (TANK) 4.0 22:16:18 10° WSW 22:25:52 70° SW 22:25:52 70° SW
Cosmos 2278 Rocket 3.9 22:25:17 10° N 22:29:36 22° NE 22:29:36 22° NE
GP-B 4.4 22:25:56 10° N 22:28:42 37° N 22:28:42 37° N
USA 215 3.2 22:37:03 72° ENE 22:37:27 75° NE 22:43:59 10° NW
ARGOS 4.2 22:39:04 36° W 22:39:13 36° W 22:44:12 10° NNW
SL-16 R/B 3.7 22:41:43 11° WSW 22:46:37 34° NW 22:51:47 10° N
Cosmos 1844 Rocket 3.5 22:41:21 10° NNW 22:45:36 43° NNE 22:45:36 43° NNE
Lacrosse 4 Rocket 4.3 22:53:04 12° NNE 22:53:04 12° NNE 22:53:27 10° NNE
Cosmos 2360 Rocket 2.9 22:58:32 50° N 22:58:32 50° N 23:02:55 10° NNE
Cosmos 2219 Rocket 4.2 23:19:24 19° NE 23:19:24 19° NE 23:21:02 10° NE
Cosmos 2263 Rocket 4.1 23:15:11 10° NW 23:18:16 20° W 23:18:16 20° W
Cosmos 2237 Rocket 4.2 23:43:16 20° NE 23:43:16 20° NE 23:45:04 10° NE
Terra 4.3 23:42:36 16° WNW 23:42:36 16° WNW 23:44:11 10° NW
Cosmos 2333 Rocket 4.0 23:51:29 26° NE 23:51:29 26° NE 23:53:54 10° NNE
ATLAS 3B R/B 3.7 23:52:25 40° ENE 23:52:25 40° ENE 23:57:01 10° NE
